Weather in Antipayuta

Russia / Yamalo-Nenets Autonomous Okrug     69°06′05″N   76°51′54″E
temp.,
°C
wind,
m/s
gust,
m/s
humid.,
%
clouds,
%
prec.,
mm/h
press.,
hPa
HPBL,
m
27 february, sat
sat2723:00−28sse0010096 0.0 102219
02:00−28e119979 0.0 102219
05:00−28se229884 0.0 102319
08:00−27se239999 0.0 102357
11:00−27sse2297100 0.1 102361
14:00−26sse3397100 0.0 1024210
17:00−27s3497100 0.0 1025168
20:00−28s4697100 0.0 1025213
28 february, sun
sun2823:00−29s4697100 0.0 1025155
02:00−29s579799 0.0 1024162
05:00−29sse689799 0.0 1025234
08:00−30sse6109799 0.0 1024200
11:00−29s7109699 0.0 1024254
14:00−28sse71096100 0.0 1024269
17:00−27sse71096100 0.1 1024270
20:00−27sse81196100 0.0 1023274
1 march, mon
mon123:00−27s81195100 0.0 1023287
02:00−27s81294100 0.0 1021264
05:00−27s81295100 0.0 1020262
08:00−27s81295100 0.0 1019280
11:00−25s91392100 0.0 1018371
14:00−24s91391100 0.0 1016423
17:00−24s91391100 0.0 1015394
20:00−23s91494100 0.1 1014433
2 march, tue
tue223:00−23s91391100 0.3 1012392
02:00−23s91490100 0.0 1012349
05:00−24s91490100 0.0 1011351
08:00−23sse101688100 0.0 1010340
11:00−22sse111687100 0.0 1010440
14:00−21s111785100 0.0 1010480
17:00−21s111787100 0.0 1010463
20:00−20s111688100 0.0 1010477
3 march, wed
wed323:00−20s111688100 0.0 1010453
02:00−20sse101587100 0.0 1010429
05:00−21sse101589100 0.0 1010392
08:00−22sse111692100 0.0 1010379
11:00−22sse101693100 0.0 1011424
14:00−21sse111593100 0.0 1011461
17:00−21sse101594100 0.1 1011412
20:00−21sse101694100 0.0 1011422